When you browse on this site, cookies collect data to enhance your experience and personalize the content and advertising you see.
Visit our Privacy Policy to learn more. By continuing to use the site, you agree to this use of cookies and data.
  • In Romania
  • List of Countries
  • For 7 days
  • Water Temperature
  • Satellite Maps
  • Weather Map
  • Weather Widgets
  • user-avatar
    Login

    Hourly Weather Gopichettipalaiyam

    Today, 24 July, Wednesday

    Time Temperature Precipitation Wind Pressure Humidity
    00:00 +26°C° 0.2 mm 2 mps 737 mmHg 90%
    01:00 +26°C° 0.2 mm 2 mps 736 mmHg 90%
    02:00 +26°C° 0.2 mm 1 mps 736 mmHg 90%
    03:00 +26°C° 0 mm 1 mps 736 mmHg 89%
    04:00 +26°C° 0 mm 1 mps 736 mmHg 89%
    05:00 +26°C° 0 mm 1 mps 736 mmHg 88%
    06:00 +27°C° 0 mm 2 mps 736 mmHg 85%
    07:00 +27°C° 0 mm 2 mps 737 mmHg 82%
    08:00 +28°C° 0 mm 2 mps 737 mmHg 78%
    09:00 +29°C° 0 mm 2 mps 737 mmHg 72%
    10:00 +31°C° 0 mm 2 mps 737 mmHg 65%
    11:00 +32°C° 0 mm 2 mps 737 mmHg 59%
    12:00 +34°C° 0.1 mm 2 mps 736 mmHg 56%
    13:00 +35°C° 0.1 mm 2 mps 736 mmHg 54%
    14:00 +35°C° 0.1 mm 2 mps 735 mmHg 52%
    15:00 +35°C° 0.5 mm 2 mps 735 mmHg 55%
    16:00 +34°C° 0.5 mm 2 mps 735 mmHg 58%
    17:00 +34°C° 0.5 mm 2 mps 735 mmHg 60%
    18:00 +31°C° 1 mm 3 mps 735 mmHg 67%
    19:00 +30°C° 1 mm 3 mps 736 mmHg 73%
    20:00 +29°C° 1 mm 3 mps 737 mmHg 80%
    21:00 +28°C° 0.5 mm 3 mps 737 mmHg 81%
    22:00 +28°C° 0.5 mm 2 mps 737 mmHg 82%
    23:00 +28°C° 0.5 mm 2 mps 738 mmHg 83%

    Tomorrow, 25 July, Thursday

    Time Temperature Precipitation Wind Pressure Humidity
    00:00 +27°C° 0 mm 2 mps 737 mmHg 84%
    01:00 +27°C° 0 mm 2 mps 737 mmHg 85%
    02:00 +27°C° 0 mm 2 mps 736 mmHg 86%
    03:00 +27°C° 0 mm 2 mps 736 mmHg 86%
    04:00 +27°C° 0 mm 2 mps 737 mmHg 86%
    05:00 +27°C° 0 mm 2 mps 737 mmHg 86%
    06:00 +27°C° 0 mm 2 mps 737 mmHg 82%
    07:00 +28°C° 0 mm 1 mps 738 mmHg 78%
    08:00 +29°C° 0 mm 1 mps 738 mmHg 74%
    09:00 +31°C° 0 mm 2 mps 738 mmHg 68%
    10:00 +32°C° 0 mm 2 mps 738 mmHg 62%
    11:00 +34°C° 0 mm 2 mps 738 mmHg 56%
    12:00 +35°C° 0.6 mm 2 mps 737 mmHg 55%
    13:00 +35°C° 0.6 mm 2 mps 737 mmHg 54%
    14:00 +36°C° 0.6 mm 2 mps 736 mmHg 53%
    15:00 +35°C° 1.5 mm 2 mps 736 mmHg 57%
    16:00 +34°C° 1.5 mm 3 mps 735 mmHg 60%
    17:00 +34°C° 1.5 mm 3 mps 735 mmHg 64%
    18:00 +31°C° 1.2 mm 3 mps 736 mmHg 69%
    19:00 +30°C° 1.2 mm 3 mps 737 mmHg 74%
    20:00 +29°C° 1.2 mm 3 mps 738 mmHg 79%
    21:00 +29°C° 0.3 mm 3 mps 738 mmHg 79%
    22:00 +28°C° 0.3 mm 3 mps 738 mmHg 80%
    23:00 +28°C° 0.3 mm 2 mps 738 mmHg 81%

    Day after tomorrow, 26 July, Friday

    Time Temperature Precipitation Wind Pressure Humidity
    00:00 +28°C° 0 mm 2 mps 738 mmHg 82%
    01:00 +28°C° 0 mm 2 mps 737 mmHg 83%
    02:00 +27°C° 0 mm 2 mps 736 mmHg 84%
    03:00 +27°C° 0 mm 2 mps 737 mmHg 84%
    04:00 +27°C° 0 mm 2 mps 737 mmHg 84%
    05:00 +27°C° 0 mm 2 mps 737 mmHg 85%
    06:00 +27°C° 0 mm 2 mps 737 mmHg 82%
    07:00 +28°C° 0 mm 2 mps 738 mmHg 79%
    08:00 +29°C° 0 mm 2 mps 738 mmHg 76%
    09:00 +30°C° 0 mm 2 mps 738 mmHg 70%
    10:00 +31°C° 0 mm 1 mps 738 mmHg 64%
    11:00 +33°C° 0 mm 1 mps 738 mmHg 57%
    12:00 +34°C° 0.4 mm 2 mps 737 mmHg 56%
    13:00 +35°C° 0.4 mm 2 mps 736 mmHg 54%
    14:00 +35°C° 0.4 mm 2 mps 736 mmHg 52%
    15:00 +32°C° 1.7 mm 2 mps 736 mmHg 61%
    16:00 +30°C° 1.7 mm 3 mps 736 mmHg 69%
    17:00 +28°C° 1.7 mm 3 mps 735 mmHg 78%
    18:00 +28°C° 0.7 mm 2 mps 736 mmHg 78%
    19:00 +28°C° 0.7 mm 2 mps 737 mmHg 79%
    20:00 +28°C° 0.7 mm 1 mps 738 mmHg 79%
    21:00 +28°C° 0.1 mm 1 mps 738 mmHg 80%
    22:00 +28°C° 0.1 mm 1 mps 738 mmHg 80%
    23:00 +28°C° 0.1 mm 1 mps 738 mmHg 81%

    27 July, Saturday

    Time Temperature Precipitation Wind Pressure Humidity
    00:00 +27°C° 0 mm 1 mps 737 mmHg 82%
    01:00 +27°C° 0 mm 2 mps 737 mmHg 83%
    02:00 +27°C° 0 mm 2 mps 736 mmHg 84%
    03:00 +27°C° 0 mm 2 mps 736 mmHg 84%
    04:00 +26°C° 0 mm 2 mps 736 mmHg 85%
    05:00 +26°C° 0 mm 2 mps 736 mmHg 85%
    06:00 +27°C° 0 mm 2 mps 736 mmHg 83%
    07:00 +27°C° 0 mm 1 mps 737 mmHg 81%
    08:00 +27°C° 0 mm 1 mps 737 mmHg 79%
    09:00 +29°C° 0 mm 2 mps 737 mmHg 73%
    10:00 +30°C° 0 mm 2 mps 737 mmHg 67%
    11:00 +31°C° 0 mm 2 mps 737 mmHg 61%
    12:00 +32°C° 0 mm 2 mps 736 mmHg 56%
    13:00 +34°C° 0 mm 2 mps 736 mmHg 51%
    14:00 +35°C° 0 mm 2 mps 735 mmHg 46%
    15:00 +35°C° 0 mm 2 mps 735 mmHg 48%
    16:00 +35°C° 0 mm 2 mps 735 mmHg 49%
    17:00 +34°C° 0 mm 2 mps 735 mmHg 51%
    18:00 +32°C° 0 mm 2 mps 736 mmHg 57%
    19:00 +31°C° 0 mm 2 mps 737 mmHg 63%
    20:00 +29°C° 0 mm 3 mps 737 mmHg 69%
    21:00 +29°C° 0 mm 3 mps 738 mmHg 71%
    22:00 +28°C° 0 mm 2 mps 738 mmHg 73%
    23:00 +28°C° 0 mm 2 mps 738 mmHg 75%

    28 July, Sunday

    Time Temperature Precipitation Wind Pressure Humidity
    00:00 +27°C° 0 mm 2 mps 737 mmHg 75%
    01:00 +27°C° 0 mm 2 mps 737 mmHg 76%
    02:00 +27°C° 0 mm 2 mps 736 mmHg 76%
    03:00 +27°C° 0 mm 2 mps 736 mmHg 77%
    04:00 +26°C° 0 mm 2 mps 736 mmHg 78%
    05:00 +26°C° 0 mm 1 mps 736 mmHg 79%
    06:00 +27°C° 0 mm 2 mps 737 mmHg 76%
    07:00 +28°C° 0 mm 2 mps 737 mmHg 72%
    08:00 +28°C° 0 mm 2 mps 737 mmHg 68%
    09:00 +30°C° 0 mm 2 mps 737 mmHg 62%
    10:00 +32°C° 0 mm 2 mps 737 mmHg 56%
    11:00 +34°C° 0 mm 2 mps 737 mmHg 49%
    12:00 +35°C° 0 mm 2 mps 737 mmHg 47%
    13:00 +35°C° 0 mm 2 mps 736 mmHg 44%
    14:00 +36°C° 0 mm 3 mps 735 mmHg 41%
    15:00 +36°C° 0 mm 3 mps 735 mmHg 43%
    16:00 +35°C° 0 mm 3 mps 736 mmHg 45%
    17:00 +35°C° 0 mm 3 mps 736 mmHg 47%
    18:00 +33°C° 0.1 mm 3 mps 736 mmHg 52%
    19:00 +31°C° 0.1 mm 3 mps 737 mmHg 57%
    20:00 +29°C° 0.1 mm 3 mps 738 mmHg 63%
    21:00 +29°C° 0 mm 3 mps 738 mmHg 65%
    22:00 +29°C° 0 mm 3 mps 738 mmHg 67%
    23:00 +28°C° 0 mm 2 mps 738 mmHg 69%

    29 July, Monday

    Time Temperature Precipitation Wind Pressure Humidity
    00:00 +28°C° 0 mm 2 mps 738 mmHg 70%
    01:00 +28°C° 0 mm 2 mps 737 mmHg 71%
    02:00 +27°C° 0 mm 2 mps 737 mmHg 73%
    03:00 +27°C° 0 mm 2 mps 737 mmHg 73%
    04:00 +27°C° 0 mm 2 mps 737 mmHg 74%
    05:00 +27°C° 0 mm 2 mps 737 mmHg 75%
    06:00 +27°C° 0 mm 2 mps 737 mmHg 73%
    07:00 +28°C° 0 mm 2 mps 738 mmHg 71%
    08:00 +28°C° 0 mm 2 mps 738 mmHg 69%
    09:00 +30°C° 0 mm 1 mps 738 mmHg 62%
    10:00 +32°C° 0 mm 1 mps 738 mmHg 55%
    11:00 +34°C° 0 mm 1 mps 738 mmHg 48%
    12:00 +34°C° 0 mm 1 mps 737 mmHg 45%
    13:00 +36°C° 0 mm 2 mps 737 mmHg 43%
    14:00 +37°C° 0 mm 2 mps 736 mmHg 40%
    15:00 +36°C° 0.2 mm 2 mps 736 mmHg 43%
    16:00 +36°C° 0.2 mm 2 mps 736 mmHg 45%
    17:00 +35°C° 0.2 mm 2 mps 736 mmHg 48%
    18:00 +34°C° 0.2 mm 2 mps 737 mmHg 54%
    19:00 +31°C° 0.2 mm 3 mps 737 mmHg 59%
    20:00 +30°C° 0.2 mm 3 mps 738 mmHg 65%
    21:00 +29°C° 0.2 mm 3 mps 738 mmHg 68%
    22:00 +29°C° 0.2 mm 2 mps 738 mmHg 71%
    23:00 +28°C° 0.2 mm 2 mps 739 mmHg 73%
    Show more